星链-5674 (STARLINK-5674 )

导读

STARLINK-5674是美国SpaceX星链互联网卫星星座中的一员,于2023年2月2日发射入轨,服务全球高速互联网接入需求,尤其为偏远地区、通信基础设施薄弱区域提供网络覆盖,也支持部分移动场景联网,依托批量发射部署,持续完善星链星座的全球服务能力。

基本信息
目录编号:
55465
目录名称:
STARLINK-5674
国际标识:
2023-015S
轨道中心:
EARTH
卫星名称:
星链-5674
卫星全名:
星链-5674 (STARLINK-5674 )
卫星状态:
在轨 (已飞行1229 天)
发射日期:
2023-02-02 UTC
国别 :
美国 (US)
星等 :
--
轨道信息
数据来源 国际轨道数据 AOE轨道数据
星历时间 2026-06-14T23:44:27+0800
10小时前
查看轨道信息
2026-06-14T02:00:00+0800
1天前
查看轨道信息
半长轴 6861.2km 6861.156km
偏心率 0.0001494 0.0001643
轨道倾角 43.006° 43.001°
近地点辐角 266.443° 248.005°
升交点赤经 140.942° 146.059°
平近点角 93.625° 164.664°
近地点 482.037km 481.891km
远地点 484.089km 484.147km
周期 94.267分钟 94.266分钟
每日圈数 15.275755 15.275903
详细信息
固有亮度:
5
最大亮度:
2.5
卫星平台:
Starlink v1.5
覆盖范围:
全球
运营商:
太空探索技术公司
运营商所在国:
美国
制造商(研发单位):
太空探索技术公司
制造商所在国:
美国
使用方式:
暂无
卫星简介
星链(Starlink)计划是由太空探索技术公司(SpaceX)提出的一个巨型低轨卫星互联网星座项目,计划在2019年至2024年间在太空搭建由约1.2万颗卫星组成的“星链”网络,其中1584颗将部署在地球上空550千米处的近地轨道,并从2020年开始工作。该卫星仍在工作。
2D轨道图
3D轨道图
轨道高度分析图
轨道倾角分析图
轨道综合分析图
查看轨道综合分析图